Time,TemperatureF,DewpointF,PressureIn,WindDirection,WindDirectionDegrees,WindSpeedMPH,WindSpeedGustMPH,Humidity,HourlyPrecipIn,Conditions,Clouds,dailyrainin,SoftwareType,DateUTC
2014-07-22 00:08:00,77.7,77.1,29.91,SSE,157,0.0,-999.0,98,-99.99,,,0.00,Acu-Link.com,2014-07-22 04:08:00,
2014-07-22 00:23:00,77.5,76.9,29.91,SSE,157,0.0,-999.0,98,-99.99,,,0.00,Acu-Link.com,2014-07-22 04:23:00,
2014-07-22 00:38:00,77.2,76.6,29.92,SSE,157,0.0,-999.0,98,-99.99,,,0.00,Acu-Link.com,2014-07-22 04:38:00,
2014-07-22 00:53:00,77.2,76.6,29.92,SSE,157,0.0,-999.0,98,-99.99,,,0.00,Acu-Link.com,2014-07-22 04:53:00,
2014-07-22 01:09:00,77.0,76.4,29.91,SSW,202,0.0,-999.0,98,-99.99,,,0.00,Acu-Link.com,2014-07-22 05:09:00,
2014-07-22 01:24:00,77.0,76.4,29.90,SSE,157,0.0,-999.0,98,-99.99,,,0.00,Acu-Link.com,2014-07-22 05:24:00,
2014-07-22 01:39:00,77.4,76.8,29.90,ESE,112,0.0,-999.0,98,-99.99,,,0.00,Acu-Link.com,2014-07-22 05:39:00,
2014-07-22 01:54:00,77.4,76.8,29.89,ESE,112,0.0,-999.0,98,-99.99,,,0.00,Acu-Link.com,2014-07-22 05:54:00,
2014-07-22 02:09:00,77.4,76.8,29.89,ESE,112,0.0,-999.0,98,-99.99,,,0.00,Acu-Link.com,2014-07-22 06:09:00,
2014-07-22 02:24:00,77.2,76.6,29.88,ESE,112,0.0,-999.0,98,-99.99,,,0.00,Acu-Link.com,2014-07-22 06:24:00,
2014-07-22 02:39:00,77.2,76.6,29.89,ESE,112,0.0,-999.0,98,-99.99,,,0.00,Acu-Link.com,2014-07-22 06:39:00,
2014-07-22 02:54:00,77.0,76.4,29.87,ESE,112,0.0,-999.0,98,-99.99,,,0.00,Acu-Link.com,2014-07-22 06:54:00,
2014-07-22 03:09:00,77.0,76.4,29.86,ESE,112,0.0,-999.0,98,-99.99,,,0.00,Acu-Link.com,2014-07-22 07:09:00,
2014-07-22 03:25:00,76.8,76.2,29.86,ESE,112,0.0,-999.0,98,-99.99,,,0.00,Acu-Link.com,2014-07-22 07:25:00,
2014-07-22 03:40:00,76.6,76.0,29.86,ESE,112,0.0,-999.0,98,-99.99,,,0.00,Acu-Link.com,2014-07-22 07:40:00,
2014-07-22 03:55:00,76.6,76.0,29.86,ESE,112,0.0,-999.0,98,-99.99,,,0.00,Acu-Link.com,2014-07-22 07:55:00,
2014-07-22 04:10:00,76.6,76.0,29.86,ESE,112,0.0,-999.0,98,-99.99,,,0.00,Acu-Link.com,2014-07-22 08:10:00,
2014-07-22 04:25:00,76.6,76.0,29.86,ESE,112,0.0,-999.0,98,-99.99,,,0.00,Acu-Link.com,2014-07-22 08:25:00,
2014-07-22 04:40:00,76.5,75.9,29.86,ESE,112,0.0,-999.0,98,-99.99,,,0.00,Acu-Link.com,2014-07-22 08:40:00,
2014-07-22 04:55:00,76.6,76.0,29.86,ESE,112,0.0,-999.0,98,-99.99,,,0.00,Acu-Link.com,2014-07-22 08:55:00,
2014-07-22 05:10:00,77.0,76.4,29.86,ESE,112,0.0,-999.0,98,-99.99,,,0.00,Acu-Link.com,2014-07-22 09:10:00,
2014-07-22 05:25:00,77.0,76.4,29.87,ESE,112,0.0,-999.0,98,-99.99,,,0.00,Acu-Link.com,2014-07-22 09:25:00,
2014-07-22 05:41:00,77.0,76.4,29.87,ESE,112,0.0,-999.0,98,-99.99,,,0.00,Acu-Link.com,2014-07-22 09:41:00,
2014-07-22 05:56:00,76.8,76.2,29.86,ESE,112,0.0,-999.0,98,-99.99,,,0.00,Acu-Link.com,2014-07-22 09:56:00,
2014-07-22 06:11:00,77.2,76.6,29.88,ESE,112,0.0,-999.0,98,-99.99,,,0.00,Acu-Link.com,2014-07-22 10:11:00,
2014-07-22 06:26:00,77.4,76.8,29.89,SE,135,0.0,-999.0,98,-99.99,,,0.00,Acu-Link.com,2014-07-22 10:26:00,
2014-07-22 06:41:00,77.5,76.9,29.90,SE,135,0.0,-999.0,98,-99.99,,,0.00,Acu-Link.com,2014-07-22 10:41:00,
2014-07-22 06:56:00,77.5,76.9,29.90,SE,135,0.0,-999.0,98,-99.99,,,0.01,Acu-Link.com,2014-07-22 10:56:00,
2014-07-22 07:11:00,77.7,77.1,29.89,ESE,112,0.0,-999.0,98,-99.99,,,0.01,Acu-Link.com,2014-07-22 11:11:00,
2014-07-22 07:27:00,78.1,77.5,29.90,ESE,112,0.0,-999.0,98,-99.99,,,0.01,Acu-Link.com,2014-07-22 11:27:00,
2014-07-22 07:42:00,78.1,77.5,29.90,WSW,247,0.0,-999.0,98,-99.99,,,0.01,Acu-Link.com,2014-07-22 11:42:00,
2014-07-22 07:57:00,82.0,81.4,29.91,West,270,0.0,-999.0,98,-99.99,,,0.01,Acu-Link.com,2014-07-22 11:57:00,
2014-07-22 08:12:00,81.9,81.3,29.90,West,270,0.0,-999.0,98,-99.99,,,0.01,Acu-Link.com,2014-07-22 12:12:00,
2014-07-22 08:27:00,82.4,-27.4,29.91,ESE,112,0.0,-999.0,1,-99.99,,,0.01,Acu-Link.com,2014-07-22 12:27:00,
2014-07-22 08:42:00,83.1,25.2,29.91,ESE,112,1.7,-999.0,12,-99.99,,,0.01,Acu-Link.com,2014-07-22 12:42:00,
2014-07-22 08:57:00,84.2,-26.3,29.91,ESE,112,0.0,-999.0,1,-99.99,,,0.01,Acu-Link.com,2014-07-22 12:57:00,
2014-07-22 09:12:00,84.2,-26.3,29.91,NNE,22,2.2,-999.0,1,-99.99,,,0.01,Acu-Link.com,2014-07-22 13:12:00,
2014-07-22 09:27:00,84.9,-25.9,29.92,ENE,67,2.7,-999.0,1,-99.99,,,0.01,Acu-Link.com,2014-07-22 13:27:00,
2014-07-22 09:43:00,85.1,-25.8,29.92,West,270,1.7,-999.0,1,-99.99,,,0.01,Acu-Link.com,2014-07-22 13:43:00,
2014-07-22 09:58:00,86.2,-25.2,29.92,West,270,0.0,-999.0,1,-99.99,,,0.01,Acu-Link.com,2014-07-22 13:58:00,
2014-07-22 10:13:00,85.5,-25.6,29.93,SSW,202,0.0,-999.0,1,-99.99,,,0.01,Acu-Link.com,2014-07-22 14:13:00,
2014-07-22 10:28:00,85.8,-25.4,29.93,NE,45,1.1,-999.0,1,-99.99,,,0.01,Acu-Link.com,2014-07-22 14:28:00,
2014-07-22 10:43:00,86.7,-24.9,29.92,SSE,157,3.7,-999.0,1,-99.99,,,0.01,Acu-Link.com,2014-07-22 14:43:00,
2014-07-22 10:58:00,87.3,-24.5,29.92,WSW,247,2.2,-999.0,1,-99.99,,,0.01,Acu-Link.com,2014-07-22 14:58:00,
2014-07-22 11:13:00,88.0,-24.1,29.92,SE,135,1.1,-999.0,1,-99.99,,,0.01,Acu-Link.com,2014-07-22 15:13:00,
2014-07-22 11:28:00,86.9,-24.8,29.94,South,180,3.7,-999.0,1,-99.99,,,0.01,Acu-Link.com,2014-07-22 15:28:00,
2014-07-22 11:43:00,87.1,-24.6,29.93,West,270,2.7,-999.0,1,-99.99,,,0.01,Acu-Link.com,2014-07-22 15:43:00,
2014-07-22 11:59:00,83.8,-26.6,29.92,ENE,67,6.3,-999.0,1,-99.99,,,0.01,Acu-Link.com,2014-07-22 15:59:00,
2014-07-22 12:14:00,81.0,-28.2,29.94,WNW,292,9.4,-999.0,1,-99.99,,,0.01,Acu-Link.com,2014-07-22 16:14:00,